• In Russia
  • List of Countries
  • For 7 days
  • Water Temperature
  • Satellite Maps
  • Weather Map
  • Weather Widgets
  • user-avatar
    Login

    Hourly Weather Tashkent

    Today, 27 April, Friday

    Time Temperature Precipitation Wind Pressure Humidity
    00:00 +14°C° 0 mm 2 mps 725 mmHg 55%
    01:00 +14°C° 0 mm 2 mps 725 mmHg 57%
    02:00 +13°C° 0 mm 2 mps 725 mmHg 58%
    03:00 +13°C° 0 mm 2 mps 725 mmHg 59%
    04:00 +13°C° 0 mm 2 mps 725 mmHg 60%
    05:00 +13°C° 0 mm 2 mps 725 mmHg 59%
    06:00 +14°C° 0 mm 2 mps 726 mmHg 56%
    07:00 +16°C° 0 mm 1 mps 726 mmHg 52%
    08:00 +18°C° 0 mm 1 mps 726 mmHg 49%
    09:00 +20°C° 0 mm 1 mps 726 mmHg 46%
    10:00 +21°C° 0 mm 1 mps 726 mmHg 43%
    11:00 +23°C° 0 mm 1 mps 727 mmHg 40%
    12:00 +24°C° 0 mm 1 mps 727 mmHg 37%
    13:00 +25°C° 0 mm 1 mps 727 mmHg 34%
    14:00 +25°C° 0 mm 1 mps 727 mmHg 32%
    15:00 +26°C° 0 mm 2 mps 726 mmHg 32%
    16:00 +26°C° 0 mm 2 mps 726 mmHg 33%
    17:00 +26°C° 0 mm 2 mps 726 mmHg 33%
    18:00 +24°C° 0 mm 2 mps 726 mmHg 39%
    19:00 +21°C° 0 mm 2 mps 726 mmHg 45%
    20:00 +19°C° 0 mm 2 mps 726 mmHg 51%
    21:00 +18°C° 0 mm 2 mps 726 mmHg 50%
    22:00 +18°C° 0 mm 2 mps 726 mmHg 50%
    23:00 +17°C° 0 mm 3 mps 726 mmHg 50%

    Tomorrow, 28 April, Saturday

    Time Temperature Precipitation Wind Pressure Humidity
    00:00 +17°C° 0 mm 2 mps 726 mmHg 48%
    01:00 +16°C° 0 mm 2 mps 726 mmHg 47%
    02:00 +16°C° 0 mm 2 mps 726 mmHg 45%
    03:00 +16°C° 0 mm 2 mps 725 mmHg 44%
    04:00 +16°C° 0 mm 2 mps 725 mmHg 43%
    05:00 +15°C° 0 mm 2 mps 725 mmHg 42%
    06:00 +17°C° 0 mm 2 mps 726 mmHg 42%
    07:00 +19°C° 0 mm 2 mps 726 mmHg 41%
    08:00 +21°C° 0 mm 2 mps 726 mmHg 41%
    09:00 +24°C° 0 mm 2 mps 726 mmHg 36%
    10:00 +26°C° 0 mm 2 mps 726 mmHg 30%
    11:00 +28°C° 0 mm 2 mps 726 mmHg 25%
    12:00 +28°C° 0 mm 2 mps 726 mmHg 24%
    13:00 +29°C° 0 mm 3 mps 725 mmHg 23%
    14:00 +30°C° 0 mm 3 mps 725 mmHg 22%
    15:00 +30°C° 0 mm 3 mps 724 mmHg 25%
    16:00 +30°C° 0 mm 3 mps 724 mmHg 27%
    17:00 +29°C° 0 mm 3 mps 723 mmHg 30%
    18:00 +27°C° 0 mm 3 mps 723 mmHg 35%
    19:00 +25°C° 0 mm 3 mps 723 mmHg 40%
    20:00 +23°C° 0 mm 2 mps 722 mmHg 46%
    21:00 +21°C° 0 mm 2 mps 722 mmHg 45%
    22:00 +21°C° 0 mm 2 mps 722 mmHg 44%
    23:00 +20°C° 0 mm 2 mps 722 mmHg 42%

    Day after tomorrow, 29 April, Sunday

    Time Temperature Precipitation Wind Pressure Humidity
    00:00 +20°C° 0 mm 2 mps 721 mmHg 41%
    01:00 +19°C° 0 mm 2 mps 721 mmHg 39%
    02:00 +19°C° 0 mm 2 mps 721 mmHg 38%
    03:00 +19°C° 0 mm 2 mps 720 mmHg 37%
    04:00 +19°C° 0 mm 2 mps 720 mmHg 36%
    05:00 +18°C° 0 mm 2 mps 720 mmHg 35%
    06:00 +20°C° 0 mm 2 mps 720 mmHg 35%
    07:00 +23°C° 0 mm 2 mps 720 mmHg 35%
    08:00 +24°C° 0 mm 1 mps 721 mmHg 34%
    09:00 +26°C° 0 mm 1 mps 721 mmHg 30%
    10:00 +28°C° 0 mm 1 mps 721 mmHg 27%
    11:00 +30°C° 0 mm 1 mps 721 mmHg 23%
    12:00 +31°C° 0 mm 1 mps 720 mmHg 22%
    13:00 +31°C° 0 mm 2 mps 720 mmHg 20%
    14:00 +32°C° 0 mm 2 mps 720 mmHg 19%
    15:00 +32°C° 0 mm 2 mps 719 mmHg 21%
    16:00 +32°C° 0 mm 1 mps 719 mmHg 22%
    17:00 +32°C° 0 mm 1 mps 719 mmHg 24%
    18:00 +30°C° 0 mm 1 mps 719 mmHg 25%
    19:00 +28°C° 0 mm 2 mps 718 mmHg 27%
    20:00 +25°C° 0 mm 2 mps 718 mmHg 29%
    21:00 +25°C° 0 mm 2 mps 718 mmHg 29%
    22:00 +24°C° 0 mm 3 mps 718 mmHg 29%
    23:00 +24°C° 0 mm 3 mps 718 mmHg 29%

    30 April, Monday

    Time Temperature Precipitation Wind Pressure Humidity
    00:00 +22°C° 0 mm 3 mps 718 mmHg 29%
    01:00 +22°C° 0 mm 3 mps 717 mmHg 30%
    02:00 +21°C° 0 mm 3 mps 717 mmHg 30%
    03:00 +21°C° 0 mm 3 mps 717 mmHg 30%
    04:00 +21°C° 0 mm 3 mps 717 mmHg 31%
    05:00 +21°C° 0 mm 2 mps 717 mmHg 31%
    06:00 +23°C° 0 mm 2 mps 718 mmHg 32%
    07:00 +24°C° 0 mm 1 mps 718 mmHg 34%
    08:00 +25°C° 0 mm 1 mps 719 mmHg 35%
    09:00 +26°C° 0 mm 1 mps 719 mmHg 33%
    10:00 +27°C° 0 mm 1 mps 719 mmHg 31%
    11:00 +28°C° 0 mm 1 mps 719 mmHg 28%
    12:00 +29°C° 0 mm 2 mps 719 mmHg 27%
    13:00 +30°C° 0 mm 4 mps 719 mmHg 26%
    14:00 +30°C° 0 mm 5 mps 719 mmHg 25%
    15:00 +29°C° 0 mm 4 mps 719 mmHg 29%
    16:00 +27°C° 0 mm 3 mps 719 mmHg 34%
    17:00 +26°C° 0 mm 2 mps 719 mmHg 39%
    18:00 +25°C° 0 mm 2 mps 720 mmHg 39%
    19:00 +24°C° 0 mm 2 mps 720 mmHg 40%
    20:00 +23°C° 0 mm 2 mps 720 mmHg 41%
    21:00 +22°C° 0 mm 3 mps 721 mmHg 43%
    22:00 +21°C° 0 mm 3 mps 721 mmHg 46%
    23:00 +21°C° 0 mm 3 mps 721 mmHg 48%

    1 May, Tuesday

    Time Temperature Precipitation Wind Pressure Humidity
    00:00 +20°C° 0.2 mm 4 mps 721 mmHg 54%
    01:00 +19°C° 0.2 mm 4 mps 721 mmHg 60%
    02:00 +18°C° 0.2 mm 4 mps 721 mmHg 66%
    03:00 +18°C° 0.1 mm 3 mps 722 mmHg 66%
    04:00 +17°C° 0.1 mm 3 mps 723 mmHg 66%
    05:00 +17°C° 0.1 mm 2 mps 723 mmHg 66%
    06:00 +18°C° 0 mm 3 mps 724 mmHg 63%
    07:00 +18°C° 0 mm 3 mps 725 mmHg 61%
    08:00 +19°C° 0 mm 3 mps 726 mmHg 59%
    09:00 +20°C° 0 mm 3 mps 726 mmHg 54%
    10:00 +21°C° 0 mm 4 mps 727 mmHg 49%
    11:00 +22°C° 0 mm 4 mps 727 mmHg 44%
    12:00 +23°C° 0 mm 4 mps 727 mmHg 41%
    13:00 +23°C° 0 mm 5 mps 727 mmHg 38%
    14:00 +23°C° 0 mm 5 mps 727 mmHg 36%
    15:00 +23°C° 0 mm 5 mps 727 mmHg 36%
    16:00 +22°C° 0 mm 5 mps 727 mmHg 37%
    17:00 +22°C° 0 mm 5 mps 727 mmHg 38%
    18:00 +20°C° 0 mm 5 mps 727 mmHg 41%
    19:00 +19°C° 0 mm 4 mps 727 mmHg 45%
    20:00 +17°C° 0 mm 3 mps 727 mmHg 48%
    21:00 +16°C° 0 mm 3 mps 727 mmHg 49%
    22:00 +16°C° 0 mm 3 mps 727 mmHg 50%
    23:00 +14°C° 0 mm 3 mps 727 mmHg 51%

    2 May, Wednesday

    Time Temperature Precipitation Wind Pressure Humidity
    00:00 +13°C° 0 mm 3 mps 726 mmHg 51%
    01:00 +13°C° 0 mm 3 mps 726 mmHg 52%
    02:00 +14°C° 0 mm 2 mps 726 mmHg 52%
    03:00 +13°C° 0 mm 2 mps 726 mmHg 53%
    04:00 +13°C° 0 mm 2 mps 726 mmHg 55%
    05:00 +13°C° 0 mm 2 mps 726 mmHg 56%
    06:00 +15°C° 0 mm 2 mps 726 mmHg 53%
    07:00 +16°C° 0 mm 2 mps 727 mmHg 51%
    08:00 +19°C° 0 mm 1 mps 727 mmHg 48%
    09:00 +19°C° 0 mm 2 mps 727 mmHg 44%
    10:00 +20°C° 0 mm 2 mps 727 mmHg 40%
    11:00 +23°C° 0 mm 2 mps 727 mmHg 36%
    12:00 +24°C° 0 mm 3 mps 727 mmHg 35%
    13:00 +24°C° 0 mm 3 mps 726 mmHg 33%
    14:00 +25°C° 0 mm 3 mps 726 mmHg 31%
    15:00 +25°C° 0 mm 3 mps 726 mmHg 32%
    16:00 +25°C° 0 mm 4 mps 726 mmHg 33%
    17:00 +25°C° 0 mm 4 mps 725 mmHg 34%
    18:00 +22°C° 0 mm 4 mps 725 mmHg 39%
    19:00 +20°C° 0 mm 3 mps 725 mmHg 44%
    20:00 +18°C° 0 mm 3 mps 725 mmHg 49%
    21:00 +18°C° 0 mm 3 mps 725 mmHg 50%
    22:00 +17°C° 0 mm 3 mps 725 mmHg 51%
    23:00 +17°C° 0 mm 2 mps 724 mmHg 53%
    Show more